EDT,Max TemperatureF,Mean TemperatureF,Min TemperatureF,Max Dew PointF,MeanDew PointF,Min DewpointF,Max Humidity, Mean Humidity, Min Humidity, Max Sea Level PressureIn, Mean Sea Level PressureIn, Min Sea Level PressureIn, Max VisibilityMiles, Mean VisibilityMiles, Min VisibilityMiles, Max Wind SpeedMPH, Mean Wind SpeedMPH, Max Gust SpeedMPH,PrecipitationIn, CloudCover, Events, WindDirDegrees
2013-4-1,78,72,66,68,66,61,93,84,74,30.04,30.01,29.98,10,10,9,14,8,17,0.00,0,,223
2013-4-2,77,69,61,66,63,58,100,88,54,30.09,30.04,30.01,10,5,0,13,5,25,0.00,3,Fog,288
2013-4-3,83,72,61,68,64,60,100,79,51,30.07,30.00,29.96,10,10,7,20,10,25,0.01,2,Rain,169
2013-4-4,72,69,65,70,67,63,100,93,78,30.10,29.99,29.88,10,6,1,26,7,114,3.10,7,Rain,160
2013-4-5,74,68,62,66,60,55,90,75,53,29.99,29.90,29.83,10,10,10,23,13,30,T,5,Rain,297
2013-4-6,77,68,58,59,55,51,84,69,46,30.10,30.05,30.00,10,10,10,17,9,23,0.00,4,,10
2013-4-7,83,72,60,60,58,55,97,67,42,30.14,30.09,30.04,10,10,10,15,8,21,0.00,2,,62
2013-4-8,85,74,63,64,60,53,87,68,37,30.12,30.08,30.04,10,10,10,15,8,21,0.00,2,,109
2013-4-9,86,74,62,64,61,58,93,69,40,30.14,30.09,30.06,10,10,10,17,8,25,0.00,2,,110
2013-4-10,85,74,63,68,64,61,93,74,48,30.10,30.03,29.96,10,10,7,23,8,26,0.01,2,Rain,106
2013-4-11,87,79,70,72,69,66,93,79,57,29.97,29.91,29.82,10,10,10,23,14,31,T,4,,146
2013-4-12,80,77,73,73,71,66,94,83,74,29.93,29.88,29.83,10,10,10,22,14,29,0.00,3,,192
2013-4-13,82,75,68,69,67,66,93,78,62,29.98,29.93,29.88,10,10,10,14,6,20,0.00,2,,312
2013-4-14,85,77,69,73,68,60,93,79,63,30.01,29.93,29.86,10,10,9,28,13,36,T,3,Rain,130
2013-4-15,86,77,68,69,65,60,87,69,54,30.07,29.99,29.94,10,10,10,15,6,18,0.00,2,,246
2013-4-16,91,80,69,75,70,67,97,77,50,30.12,30.08,30.02,10,9,2,16,8,22,0.36,3,Rain,104
2013-4-17,89,79,68,67,63,57,90,62,37,30.13,30.07,30.01,10,10,10,17,9,23,0.00,1,,80
2013-4-18,86,77,67,71,67,64,93,73,51,30.03,30.00,29.95,10,10,10,16,8,22,0.00,2,,146
2013-4-19,87,79,71,73,71,69,93,78,61,30.01,29.98,29.93,10,10,10,28,12,37,0.00,1,,165
2013-4-20,79,72,65,73,66,61,94,79,58,30.13,30.02,29.98,10,10,10,16,9,22,T,6,Rain,24
2013-4-21,86,74,61,69,62,57,93,77,48,30.11,30.07,30.01,10,10,10,16,9,21,0.20,5,Rain,49
2013-4-22,84,76,67,70,67,64,93,82,55,30.09,30.04,29.96,10,9,5,17,7,23,0.26,6,Rain,71
2013-4-23,87,77,67,64,62,58,93,69,40,30.10,30.05,30.00,10,10,8,16,10,23,0.00,4,,66
2013-4-24,84,73,62,66,62,55,93,71,40,30.14,30.10,30.07,10,10,10,15,9,17,0.00,0,,45
2013-4-25,82,74,65,69,64,62,93,72,51,30.21,30.15,30.09,10,10,10,16,8,20,0.00,0,,359
2013-4-26,85,75,64,69,64,59,93,68,43,30.24,30.18,30.14,10,10,10,16,6,20,0.00,1,,353
2013-4-27,87,77,67,68,64,60,93,67,44,30.21,30.14,30.07,10,10,9,16,9,21,T,3,,80
2013-4-28,86,76,66,67,63,58,87,67,40,30.11,30.04,29.96,10,10,10,16,8,21,0.00,2,,131
2013-4-29,85,76,66,72,66,59,87,70,55,30.01,29.97,29.91,10,10,10,16,8,20,0.00,2,,168
2013-4-30,86,77,68,72,68,64,93,76,51,29.99,29.95,29.91,10,10,10,17,7,32,0.00,2,,115